Location: Bord�res
(43.2000°N, 0.2167°W)
Time: 13:45:04
(UTC+00:00)

Cosmos 2360 Rocket - Pass Details

Date: 03 March 2021
Orbit: 832 x 846 km, 71.0° (Epoch: 13 April)

Event Time Altitude Azimuth Distance (km) Brightness Sun altitude
Rises 20:19:48 0° 236° (SW) 3,380 5.8 -27.3°
Reaches altitude 10° 20:22:34 10° 248° (WSW) 2,452 5.2 -27.8°
Maximum altitude 20:27:23 28° 307° (NW) 1,518 4.1 -28.6°
Drops below altitude 10° 20:32:15 10° 6° (N) 2,472 4.8 -29.5°
Sets 20:35:03 0° 18° (NNE) 3,412 5.4 -29.9°
